QPF
0.02 0.01 0.01 0.02 0.04 0.04 0.03 0.03 0.03 0.02 0.02 0.03 0.03 0.03 0.03 0.04 0.05 0.05 0.04 0.04 0.04 0.06 0.08 0.10 0.11 0.11 0.09 0.07 0.06 0.06 0.05 0.04 0.04 0.06 0.09 0.09 0.08 0.06 0.04 0.03 0.03 0.03 0.03
0.02 0.01 0.01 0.01 0.01 0.03 0.03 0.03 0.03 0.03 0.03 0.02 0.02 0.02 0.03 0.03 0.04 0.07 0.07 0.06 0.05 0.05 0.05 0.06 0.07 0.10 0.09 0.08 0.08 0.07 0.07 0.05 0.05 0.06 0.08 0.09 0.11 0.10 0.07 0.05 0.04 0.04 0.04
0.01 0.01 0.01 0.00 0.00 0.01 0.01 0.02 0.02 0.03 0.04 0.05 0.05 0.04 0.03 0.04 0.05 0.06 0.06 0.07 0.07 0.06 0.05 0.05 0.05 0.06 0.07 0.07 0.07 0.08 0.09 0.08 0.06 0.06 0.07 0.07 0.08 0.10 0.08 0.07 0.05 0.04 0.04
0.01 0.01 0.01 0.01 0.00 0.00 0.00 0.01 0.01 0.01 0.03 0.05 0.07 0.08 0.06 0.05 0.05 0.05 0.05 0.05 0.05 0.06 0.06 0.06 0.07 0.07 0.07 0.07 0.06 0.07 0.10 0.10 0.09 0.07 0.06 0.05 0.05 0.07 0.08 0.07 0.06 0.05 0.04
0.01 0.01 0.01 0.01 0.00 0.00 0.00 0.01 0.01 0.01 0.02 0.03 0.04 0.05 0.06 0.07 0.07 0.07 0.06 0.05 0.05 0.05 0.06 0.05 0.05 0.06 0.07 0.07 0.07 0.06 0.07 0.09 0.09 0.09 0.07 0.07 0.06 0.05 0.05 0.06 0.07 0.06 0.05
0.01 0.01 0.01 0.01 0.00 0.00 0.00 0.01 0.01 0.01 0.01 0.02 0.02 0.02 0.02 0.03 0.03 0.03 0.04 0.05 0.05 0.06 0.07 0.07 0.06 0.05 0.04 0.04 0.04 0.05 0.05 0.06 0.07 0.07 0.07 0.07 0.07 0.07 0.06 0.06 0.05 0.05 0.04
0.02 0.01 0.01 0.01 0.00 0.00 0.00 0.00 0.01 0.01 0.01 0.01 0.02 0.02 0.01 0.01 0.02 0.03 0.03 0.03 0.04 0.04 0.05 0.06 0.06 0.05 0.06 0.05 0.04 0.04 0.04 0.04 0.04 0.05 0.04 0.04 0.05 0.06 0.06 0.05 0.05 0.04 0.03
0.02 0.02 0.02 0.01 0.01 0.00 0.00 0.00 0.01 0.01 0.01 0.01 0.01 0.01 0.01 0.01 0.01 0.02 0.02 0.02 0.02 0.03 0.03 0.04 0.04 0.04 0.05 0.06 0.06 0.04 0.03 0.04 0.04 0.04 0.04 0.04 0.03 0.03 0.03 0.03 0.03 0.03 0.03
0.01 0.02 0.02 0.02 0.01 0.01 0.01 0.01 0.01 0.01 0.01 0.01 0.01 0.01 0.01 0.01 0.01 0.01 0.01 0.01 0.01 0.01 0.02 0.02 0.03 0.04 0.05 0.07 0.08 0.08 0.05 0.05 0.05 0.05 0.05 0.05 0.04 0.04 0.03 0.03 0.03 0.03 0.03
0.01 0.01 0.01 0.01 0.01 0.01 0.01 0.01 0.01 0.01 0.01 0.01 0.01 0.01 0.01 0.01 0.01 0.00 0.00 0.00 0.00 0.01 0.01 0.01 0.02 0.03 0.05 0.06 0.07 0.09 0.08 0.07 0.06 0.06 0.06 0.06 0.05 0.04 0.04 0.03 0.03 0.03 0.03
0.01 0.01 0.00 0.01 0.01 0.01 0.01 0.01 0.01 0.01 0.01 0.01 0.01 0.01 0.01 0.01 0.01 0.00 0.00 0.00 0.00 0.00 0.01 0.01 0.01 0.02 0.02 0.04 0.06 0.07 0.08 0.07 0.07 0.07 0.06 0.07 0.07 0.06 0.05 0.04 0.04 0.04 0.03
0.02 0.01 0.01 0.01 0.01 0.01 0.01 0.01 0.01 0.01 0.01 0.01 0.02 0.01 0.01 0.01 0.01 0.01 0.00 0.00 0.00 0.00 0.01 0.01 0.01 0.02 0.02 0.03 0.04 0.04 0.05 0.06 0.06 0.05 0.05 0.05 0.06 0.07 0.06 0.05 0.04 0.03 0.03
0.02 0.02 0.01 0.01 0.02 0.01 0.01 0.01 0.01 0.01 0.01 0.02 0.02 0.02 0.02 0.01 0.01 0.00 0.00 0.00 0.00 0.00 0.00 0.01 0.01 0.01 0.02 0.02 0.03 0.03 0.03 0.04 0.05 0.05 0.05 0.05 0.05 0.05 0.06 0.06 0.05 0.04 0.03
0.02 0.03 0.02 0.02 0.02 0.02 0.02 0.02 0.01 0.01 0.01 0.01 0.01 0.02 0.01 0.01 0.01 0.00 0.00 0.00 0.00 0.00 0.00 0.01 0.01 0.01 0.01 0.02 0.02 0.02 0.03 0.02 0.03 0.04 0.04 0.04 0.04 0.04 0.05 0.06 0.06 0.06 0.05
0.02 0.03 0.03 0.02 0.02 0.02 0.02 0.02 0.02 0.02 0.01 0.01 0.01 0.01 0.01 0.01 0.01 0.00 0.00 0.00 0.00 0.00 0.01 0.01 0.01 0.01 0.01 0.02 0.02 0.02 0.02 0.02 0.02 0.03 0.04 0.04 0.04 0.03 0.04 0.04 0.05 0.06 0.07
0.02 0.02 0.02 0.02 0.02 0.02 0.02 0.01 0.02 0.02 0.01 0.01 0.01 0.01 0.01 0.00 0.00 0.00 0.00 0.00 0.00 0.00 0.00 0.01 0.01 0.01 0.02 0.03 0.02 0.02 0.03 0.03 0.03 0.02 0.03 0.04 0.04 0.03 0.03 0.03 0.04 0.04 0.05
0.02 0.02 0.02 0.02 0.02 0.02 0.02 0.01 0.01 0.01 0.01 0.01 0.01 0.01 0.01 0.00 0.00 0.00 0.00 0.00 0.00 0.00 0.00 0.01 0.01 0.01 0.02 0.03 0.03 0.02 0.02 0.03 0.03 0.02 0.03 0.03 0.04 0.03 0.02 0.03 0.03 0.03 0.04
0.01 0.01 0.01 0.01 0.01 0.01 0.01 0.01 0.01 0.01 0.01 0.01 0.01 0.01 0.01 0.01 0.01 0.00 0.00 0.00 0.00 0.00 0.00 0.01 0.01 0.01 0.01 0.02 0.03 0.03 0.02 0.02 0.02 0.01 0.02 0.02 0.03 0.04 0.03 0.02 0.02 0.02 0.02
0.00 0.00 0.00 0.00 0.01 0.01 0.01 0.01 0.01 0.01 0.01 0.01 0.01 0.01 0.01 0.01 0.01 0.01 0.01 0.00 0.00 0.00 0.01 0.01 0.01 0.01 0.01 0.01 0.02 0.02 0.01 0.01 0.02 0.01 0.02 0.02 0.02 0.03 0.03 0.03 0.02 0.01 0.01
0.00 0.00 0.00 0.01 0.01 0.01 0.01 0.01 0.01 0.01 0.01 0.00 0.00 0.00 0.00 0.00 0.00 0.00 0.00 0.00 0.00 0.00 0.01 0.01 0.01 0.01 0.01 0.01 0.01 0.01 0.01 0.01 0.01 0.01 0.01 0.02 0.01 0.02 0.03 0.03 0.03 0.02 0.02
0.00 0.01 0.01 0.01 0.01 0.01 0.01 0.01 0.01 0.01 0.01 0.00 0.00 0.00 0.00 0.00 0.00 0.00 0.00 0.00 0.00 0.00 0.01 0.01 0.01 0.01 0.01 0.01 0.01 0.01 0.01 0.01 0.01 0.01 0.01 0.02 0.02 0.02 0.02 0.03 0.03 0.03 0.03
0.00 0.01 0.01 0.01 0.01 0.01 0.01 0.01 0.01 0.01 0.00 0.00 0.00 0.00 0.00 0.00 0.00 0.00 0.00 0.00 0.00 0.01 0.01 0.01 0.01 0.01 0.01 0.01 0.01 0.01 0.01 0.01 0.01 0.01 0.01 0.02 0.02 0.01 0.01 0.01 0.02 0.03 0.03
0.00 0.01 0.01 0.01 0.01 0.01 0.01 0.01 0.01 0.00 0.00 0.00 0.00 0.00 0.00 0.00 0.00 0.00 0.00 0.01 0.00 0.01 0.01 0.01 0.01 0.01 0.01 0.01 0.01 0.01 0.01 0.01 0.00 0.01 0.01 0.01 0.01 0.01 0.01 0.01 0.01 0.02 0.03
0.01 0.01 0.01 0.01 0.01 0.01 0.01 0.01 0.00 0.00 0.00 0.00 0.00 0.00 0.00 0.00 0.00 0.00 0.01 0.01 0.00 0.01 0.01 0.01 0.01 0.01 0.01 0.01 0.01 0.01 0.01 0.01 0.01 0.00 0.00 0.00 0.00 0.00 0.00 0.01 0.01 0.01 0.03
0.01 0.00 0.00 0.01 0.01 0.01 0.01 0.01 0.01 0.01 0.01 0.01 0.00 0.00 0.00 0.00 0.00 0.00 0.00 0.00 0.00 0.00 0.01 0.01 0.01 0.01 0.01 0.01 0.00 0.00 0.00 0.01 0.00 0.00 0.00 0.00 0.00 0.00 0.00 0.00 0.00 0.01 0.02
0.00 0.00 0.00 0.00 0.00 0.01 0.01 0.01 0.01 0.01 0.01 0.01 0.01 0.01 0.00 0.00 0.00 0.00 0.00 0.00 0.00 0.00 0.01 0.01 0.01 0.00 0.00 0.00 0.00 0.00 0.00 0.01 0.01 0.01 0.01 0.00 0.00 0.00 0.00 0.00 0.00 0.01 0.01
MSLP
1008.20 1008.16 1008.27 1008.50 1008.81 1009.20 1009.62 1010.06 1010.51 1010.96 1011.39 1011.80 1012.20 1012.58 1012.94 1013.28 1013.59 1013.87 1014.11 1014.31 1014.47 1014.60 1014.70 1014.80 1014.91 1015.04 1015.21 1015.41 1015.63 1015.85 1016.05 1016.21 1016.31 1016.33 1016.27 1016.15 1015.96 1015.75 1015.53 1015.33 1015.16 1015.04 1014.97
1008.01 1007.91 1007.94 1008.08 1008.30 1008.60 1008.94 1009.32 1009.72 1010.12 1010.53 1010.94 1011.34 1011.74 1012.14 1012.52 1012.89 1013.22 1013.52 1013.78 1013.99 1014.15 1014.28 1014.38 1014.48 1014.59 1014.73 1014.90 1015.09 1015.29 1015.49 1015.66 1015.78 1015.83 1015.80 1015.69 1015.52 1015.30 1015.06 1014.82 1014.60 1014.43 1014.31
1008.04 1007.88 1007.82 1007.85 1007.96 1008.15 1008.39 1008.68 1009.00 1009.35 1009.72 1010.11 1010.50 1010.91 1011.33 1011.74 1012.14 1012.53 1012.88 1013.18 1013.44 1013.64 1013.79 1013.91 1014.00 1014.09 1014.20 1014.33 1014.49 1014.67 1014.86 1015.03 1015.16 1015.24 1015.24 1015.17 1015.03 1014.83 1014.58 1014.33 1014.09 1013.88 1013.73
1008.29 1008.08 1007.94 1007.86 1007.86 1007.93 1008.06 1008.25 1008.49 1008.78 1009.10 1009.46 1009.83 1010.23 1010.64 1011.06 1011.47 1011.88 1012.25 1012.59 1012.88 1013.11 1013.29 1013.42 1013.51 1013.59 1013.67 1013.76 1013.88 1014.03 1014.19 1014.35 1014.49 1014.59 1014.63 1014.60 1014.50 1014.33 1014.11 1013.87 1013.62 1013.39 1013.21
1008.72 1008.48 1008.27 1008.12 1008.02 1007.98 1008.02 1008.12 1008.29 1008.52 1008.80 1009.11 1009.45 1009.81 1010.19 1010.59 1010.98 1011.38 1011.76 1012.11 1012.41 1012.66 1012.86 1012.99 1013.08 1013.14 1013.19 1013.24 1013.32 1013.42 1013.55 1013.68 1013.82 1013.94 1014.00 1014.01 1013.95 1013.83 1013.64 1013.41 1013.17 1012.93 1012.73
1009.28 1009.03 1008.79 1008.58 1008.41 1008.30 1008.27 1008.32 1008.44 1008.62 1008.86 1009.12 1009.42 1009.74 1010.07 1010.42 1010.77 1011.13 1011.48 1011.82 1012.12 1012.37 1012.56 1012.70 1012.78 1012.82 1012.83 1012.84 1012.87 1012.91 1012.99 1013.10 1013.22 1013.33 1013.41 1013.44 1013.41 1013.32 1013.16 1012.95 1012.72 1012.48 1012.26
1009.92 1009.68 1009.42 1009.18 1008.98 1008.84 1008.78 1008.80 1008.90 1009.06 1009.27 1009.51 1009.76 1010.03 1010.30 1010.58 1010.88 1011.18 1011.48 1011.78 1012.05 1012.29 1012.47 1012.60 1012.66 1012.67 1012.65 1012.61 1012.58 1012.57 1012.59 1012.65 1012.73 1012.81 1012.88 1012.92 1012.91 1012.83 1012.69 1012.49 1012.26 1012.02 1011.79
1010.57 1010.34 1010.10 1009.85 1009.65 1009.52 1009.46 1009.49 1009.59 1009.76 1009.96 1010.18 1010.40 1010.62 1010.83 1011.05 1011.27 1011.51 1011.75 1012.00 1012.23 1012.44 1012.60 1012.70 1012.74 1012.72 1012.66 1012.57 1012.48 1012.41 1012.37 1012.36 1012.39 1012.44 1012.48 1012.49 1012.47 1012.38 1012.24 1012.04 1011.81 1011.56 1011.32
1011.20 1010.98 1010.74 1010.52 1010.34 1010.23 1010.20 1010.26 1010.39 1010.58 1010.79 1011.00 1011.20 1011.39 1011.56 1011.71 1011.87 1012.04 1012.23 1012.43 1012.62 1012.79 1012.92 1012.99 1013.00 1012.94 1012.84 1012.70 1012.56 1012.43 1012.32 1012.25 1012.22 1012.21 1012.20 1012.18 1012.12 1012.01 1011.84 1011.63 1011.38 1011.12 1010.87
1011.78 1011.56 1011.33 1011.12 1010.97 1010.89 1010.91 1011.01 1011.18 1011.39 1011.62 1011.84 1012.03 1012.20 1012.33 1012.45 1012.56 1012.69 1012.82 1012.97 1013.12 1013.25 1013.35 1013.39 1013.36 1013.28 1013.13 1012.95 1012.76 1012.58 1012.42 1012.29 1012.20 1012.13 1012.07 1012.00 1011.89 1011.74 1011.53 1011.29 1011.02 1010.74 1010.48
1012.31 1012.07 1011.83 1011.64 1011.51 1011.46 1011.51 1011.64 1011.85 1012.09 1012.33 1012.56 1012.75 1012.90 1013.02 1013.12 1013.21 1013.31 1013.41 1013.53 1013.65 1013.75 1013.81 1013.81 1013.76 1013.64 1013.46 1013.25 1013.02 1012.80 1012.60 1012.43 1012.29 1012.17 1012.06 1011.93 1011.77 1011.57 1011.33 1011.05 1010.76 1010.46 1010.20
1012.79 1012.53 1012.29 1012.09 1011.97 1011.94 1012.00 1012.15 1012.36 1012.61 1012.85 1013.08 1013.27 1013.42 1013.53 1013.63 1013.72 1013.80 1013.90 1014.01 1014.10 1014.17 1014.20 1014.18 1014.09 1013.94 1013.74 1013.50 1013.25 1013.01 1012.78 1012.59 1012.42 1012.27 1012.12 1011.95 1011.75 1011.51 1011.23 1010.93 1010.61 1010.30 1010.03
1013.27 1012.98 1012.71 1012.50 1012.38 1012.34 1012.40 1012.53 1012.73 1012.95 1013.18 1013.39 1013.57 1013.72 1013.84 1013.94 1014.03 1014.13 1014.24 1014.34 1014.42 1014.48 1014.48 1014.43 1014.31 1014.14 1013.92 1013.66 1013.40 1013.15 1012.92 1012.72 1012.54 1012.37 1012.20 1012.00 1011.78 1011.51 1011.21 1010.89 1010.56 1010.25 1009.98
1013.73 1013.43 1013.14 1012.92 1012.77 1012.71 1012.73 1012.83 1012.98 1013.16 1013.35 1013.52 1013.68 1013.81 1013.93 1014.05 1014.17 1014.28 1014.40 1014.51 1014.59 1014.64 1014.62 1014.54 1014.40 1014.20 1013.96 1013.70 1013.43 1013.18 1012.96 1012.76 1012.58 1012.41 1012.24 1012.04 1011.80 1011.53 1011.22 1010.90 1010.57 1010.27 1010.00
1014.20 1013.88 1013.59 1013.34 1013.17 1013.07 1013.04 1013.08 1013.17 1013.28 1013.41 1013.53 1013.65 1013.77 1013.89 1014.02 1014.15 1014.30 1014.43 1014.55 1014.64 1014.67 1014.63 1014.53 1014.36 1014.14 1013.88 1013.60 1013.34 1013.09 1012.87 1012.69 1012.52 1012.36 1012.19 1011.99 1011.76 1011.50 1011.20 1010.89 1010.58 1010.30 1010.05
1014.63 1014.32 1014.02 1013.76 1013.56 1013.42 1013.34 1013.31 1013.32 1013.36 1013.41 1013.48 1013.56 1013.65 1013.76 1013.90 1014.05 1014.22 1014.37 1014.50 1014.59 1014.61 1014.55 1014.42 1014.22 1013.97 1013.69 1013.40 1013.12 1012.87 1012.66 1012.48 1012.32 1012.17 1012.01 1011.82 1011.61 1011.36 1011.09 1010.81 1010.54 1010.28 1010.07
1014.99 1014.69 1014.40 1014.13 1013.91 1013.73 1013.60 1013.51 1013.45 1013.41 1013.40 1013.40 1013.44 1013.50 1013.61 1013.75 1013.92 1014.10 1014.27 1014.40 1014.48 1014.49 1014.41 1014.25 1014.02 1013.73 1013.42 1013.11 1012.81 1012.55 1012.33 1012.14 1011.98 1011.83 1011.68 1011.51 1011.31 1011.10 1010.86 1010.62 1010.38 1010.17 1010.00
1015.21 1014.93 1014.64 1014.38 1014.14 1013.95 1013.78 1013.64 1013.52 1013.43 1013.36 1013.32 1013.32 1013.36 1013.46 1013.60 1013.78 1013.97 1014.14 1014.28 1014.35 1014.33 1014.23 1014.04 1013.77 1013.45 1013.10 1012.75 1012.43 1012.14 1011.90 1011.70 1011.52 1011.37 1011.21 1011.05 1010.88 1010.69 1010.49 1010.29 1010.11 1009.95 1009.82
1015.24 1014.96 1014.69 1014.43 1014.20 1013.99 1013.81 1013.64 1013.50 1013.37 1013.28 1013.21 1013.19 1013.23 1013.32 1013.46 1013.64 1013.83 1014.00 1014.12 1014.18 1014.14 1014.01 1013.78 1013.48 1013.12 1012.74 1012.35 1012.00 1011.67 1011.40 1011.17 1010.98 1010.81 1010.65 1010.49 1010.34 1010.18 1010.02 1009.87 1009.74 1009.63 1009.56
1015.02 1014.75 1014.48 1014.24 1014.02 1013.82 1013.65 1013.49 1013.35 1013.22 1013.12 1013.05 1013.03 1013.07 1013.16 1013.31 1013.48 1013.66 1013.82 1013.93 1013.96 1013.90 1013.74 1013.48 1013.14 1012.75 1012.33 1011.92 1011.52 1011.17 1010.87 1010.61 1010.39 1010.21 1010.04 1009.89 1009.75 1009.62 1009.50 1009.40 1009.32 1009.27 1009.24
1014.56 1014.28 1014.02 1013.79 1013.60 1013.43 1013.29 1013.16 1013.05 1012.95 1012.87 1012.83 1012.82 1012.87 1012.97 1013.11 1013.28 1013.45 1013.59 1013.67 1013.67 1013.58 1013.39 1013.10 1012.74 1012.32 1011.88 1011.45 1011.03 1010.65 1010.33 1010.05 1009.81 1009.62 1009.45 1009.31 1009.19 1009.08 1009.00 1008.95 1008.92 1008.91 1008.92
1013.86 1013.57 1013.32 1013.12 1012.96 1012.83 1012.74 1012.66 1012.60 1012.55 1012.52 1012.51 1012.54 1012.61 1012.71 1012.85 1013.00 1013.15 1013.26 1013.31 1013.28 1013.16 1012.95 1012.64 1012.27 1011.84 1011.40 1010.95 1010.53 1010.15 1009.81 1009.53 1009.29 1009.09 1008.94 1008.81 1008.71 1008.64 1008.59 1008.58 1008.58 1008.61 1008.65
1013.00 1012.70 1012.45 1012.28 1012.16 1012.08 1012.05 1012.04 1012.04 1012.05 1012.07 1012.11 1012.17 1012.26 1012.38 1012.51 1012.64 1012.76 1012.84 1012.85 1012.79 1012.65 1012.41 1012.10 1011.72 1011.31 1010.88 1010.45 1010.04 1009.68 1009.36 1009.08 1008.86 1008.68 1008.54 1008.44 1008.36 1008.32 1008.31 1008.32 1008.35 1008.40 1008.46
1012.03 1011.73 1011.50 1011.35 1011.28 1011.26 1011.28 1011.33 1011.40 1011.47 1011.54 1011.63 1011.72 1011.83 1011.95 1012.07 1012.18 1012.26 1012.31 1012.29 1012.20 1012.04 1011.80 1011.50 1011.14 1010.75 1010.35 1009.96 1009.60 1009.26 1008.98 1008.74 1008.55 1008.39 1008.28 1008.20 1008.16 1008.14 1008.15 1008.18 1008.23 1008.29 1008.35
1011.05 1010.75 1010.55 1010.43 1010.39 1010.41 1010.48 1010.59 1010.70 1010.82 1010.94 1011.06 1011.18 1011.30 1011.42 1011.53 1011.62 1011.68 1011.69 1011.65 1011.55 1011.38 1011.15 1010.87 1010.55 1010.20 1009.86 1009.52 1009.21 1008.94 1008.70 1008.51 1008.36 1008.24 1008.16 1008.11 1008.08 1008.09 1008.11 1008.15 1008.19 1008.24 1008.29
1010.14 1009.86 1009.67 1009.57 1009.55 1009.60 1009.70 1009.83 1009.97 1010.12 1010.27 1010.41 1010.55 1010.68 1010.79 1010.89 1010.97 1011.01 1011.01 1010.96 1010.86 1010.70 1010.50 1010.26 1009.99 1009.71 1009.43 1009.17 1008.92 1008.71 1008.53 1008.39 1008.28 1008.19 1008.14 1008.11 1008.10 1008.11 1008.13 1008.16 1008.19 1008.22 1008.24
Thickness
5609 5608 5606 5606 5604 5604 5603 5602 5601 5600 5599 5599 5598 5597 5596 5595 5594 5593 5593 5593 5594 5596 5597 5598 5600 5602 5604 5605 5607 5607 5608 5608 5608 5607 5606 5605 5605 5606 5607 5608 5608 5607 5606
5601 5599 5598 5597 5596 5596 5595 5593 5593 5591 5590 5590 5589 5588 5587 5585 5584 5583 5583 5583 5584 5586 5587 5589 5591 5592 5593 5595 5597 5598 5599 5598 5598 5600 5600 5600 5599 5598 5598 5598 5599 5599 5598
5594 5592 5590 5589 5588 5588 5586 5585 5584 5582 5581 5580 5579 5577 5576 5575 5574 5574 5574 5574 5575 5576 5578 5579 5581 5582 5583 5586 5588 5589 5590 5591 5590 5591 5593 5596 5598 5594 5591 5590 5589 5589 5589
5586 5585 5583 5581 5580 5579 5577 5576 5575 5573 5572 5570 5570 5570 5569 5568 5567 5566 5565 5565 5566 5566 5568 5570 5571 5572 5574 5576 5578 5580 5581 5583 5583 5582 5583 5585 5588 5587 5585 5582 5581 5580 5579
5577 5575 5574 5573 5571 5569 5567 5566 5565 5563 5562 5561 5561 5561 5560 5560 5558 5557 5557 5557 5557 5557 5559 5560 5562 5563 5565 5566 5568 5569 5571 5573 5574 5575 5574 5574 5574 5576 5577 5576 5573 5570 5569
5567 5566 5564 5563 5561 5559 5557 5556 5555 5553 5552 5551 5551 5551 5551 5551 5549 5549 5549 5548 5548 5548 5550 5552 5553 5555 5556 5557 5559 5560 5562 5563 5564 5565 5565 5565 5566 5566 5567 5567 5564 5563 5561
5558 5557 5556 5554 5552 5550 5548 5547 5545 5544 5542 5541 5541 5541 5542 5541 5541 5541 5541 5540 5541 5541 5542 5543 5545 5547 5548 5549 5550 5552 5552 5554 5555 5555 5556 5555 5556 5556 5556 5556 5555 5553 5551
5548 5547 5547 5545 5543 5541 5539 5538 5536 5534 5532 5532 5531 5532 5531 5531 5532 5532 5532 5532 5533 5533 5533 5535 5536 5538 5539 5540 5541 5542 5543 5544 5544 5545 5545 5544 5544 5543 5544 5544 5543 5543 5542
5538 5538 5536 5535 5533 5531 5530 5528 5526 5525 5523 5522 5521 5522 5522 5522 5522 5522 5523 5523 5524 5524 5524 5526 5527 5529 5530 5531 5532 5533 5534 5534 5535 5534 5534 5534 5533 5532 5532 5532 5531 5531 5531
5528 5527 5526 5524 5523 5521 5519 5517 5516 5515 5514 5513 5513 5512 5512 5512 5512 5512 5513 5514 5515 5515 5516 5517 5518 5520 5521 5522 5523 5523 5524 5525 5524 5524 5523 5523 5522 5521 5520 5520 5519 5519 5519
5518 5517 5516 5514 5512 5510 5509 5507 5506 5505 5504 5504 5503 5503 5502 5502 5502 5503 5504 5505 5505 5506 5507 5508 5509 5511 5512 5513 5513 5514 5514 5514 5514 5513 5513 5512 5510 5509 5508 5508 5507 5507 5507
5508 5506 5505 5503 5502 5501 5500 5498 5497 5496 5495 5494 5494 5493 5493 5492 5493 5493 5494 5495 5496 5497 5498 5499 5500 5502 5503 5503 5504 5504 5504 5504 5504 5503 5502 5501 5499 5498 5497 5496 5496 5495 5495
5498 5497 5495 5494 5494 5493 5491 5490 5489 5488 5487 5485 5485 5484 5484 5483 5483 5484 5485 5486 5487 5487 5488 5489 5490 5492 5492 5493 5493 5494 5494 5494 5494 5493 5492 5491 5489 5488 5486 5485 5484 5483 5482
5489 5488 5487 5487 5485 5484 5482 5481 5480 5479 5478 5477 5476 5476 5475 5475 5475 5475 5476 5476 5477 5478 5478 5479 5480 5481 5481 5482 5483 5483 5483 5483 5482 5482 5481 5480 5479 5477 5475 5473 5472 5471 5470
5481 5479 5479 5478 5477 5476 5474 5472 5471 5470 5468 5468 5468 5468 5467 5467 5466 5466 5467 5467 5467 5468 5468 5469 5470 5470 5471 5471 5472 5472 5472 5471 5470 5470 5469 5468 5466 5464 5463 5461 5461 5459 5458
5473 5472 5471 5470 5469 5468 5466 5464 5463 5461 5460 5460 5460 5459 5459 5458 5458 5459 5459 5459 5459 5459 5459 5459 5460 5460 5460 5460 5460 5460 5460 5460 5459 5458 5457 5455 5454 5452 5450 5449 5449 5448 5447
5466 5464 5463 5462 5461 5460 5458 5456 5455 5453 5452 5452 5451 5451 5451 5450 5450 5450 5450 5450 5450 5449 5449 5449 5450 5450 5450 5448 5448 5448 5448 5448 5448 5446 5445 5444 5442 5440 5440 5438 5437 5436 5435
5457 5456 5454 5453 5452 5451 5448 5447 5445 5444 5443 5443 5443 5442 5442 5442 5441 5441 5442 5442 5441 5440 5440 5440 5440 5440 5439 5438 5437 5436 5436 5436 5436 5435 5434 5432 5430 5429 5427 5426 5426 5425 5423
5447 5446 5445 5444 5442 5440 5439 5437 5436 5435 5435 5435 5434 5434 5434 5433 5433 5433 5432 5432 5431 5431 5430 5430 5429 5429 5429 5427 5427 5425 5426 5426 5425 5423 5422 5420 5419 5418 5416 5415 5414 5413 5412
5436 5436 5435 5434 5432 5431 5429 5428 5428 5427 5427 5427 5426 5426 5425 5425 5425 5424 5423 5422 5421 5421 5420 5419 5419 5419 5419 5417 5416 5415 5416 5416 5414 5412 5411 5409 5408 5406 5405 5404 5404 5403 5401
5426 5426 5425 5425 5424 5421 5419 5420 5420 5419 5419 5418 5417 5417 5417 5416 5416 5415 5414 5413 5411 5411 5410 5409 5409 5408 5408 5408 5406 5406 5406 5405 5403 5402 5400 5398 5396 5395 5394 5393 5392 5391 5389
5416 5416 5415 5415 5414 5412 5411 5411 5412 5411 5409 5409 5409 5409 5408 5407 5406 5405 5404 5403 5402 5401 5400 5400 5400 5399 5398 5398 5397 5396 5395 5394 5393 5392 5390 5387 5385 5384 5382 5381 5380 5378 5376
5406 5405 5405 5405 5404 5403 5402 5402 5403 5401 5400 5400 5400 5400 5399 5398 5397 5396 5395 5394 5393 5393 5392 5392 5392 5391 5389 5388 5387 5386 5385 5383 5382 5381 5379 5376 5374 5372 5371 5369 5367 5366 5364
5397 5396 5395 5396 5396 5395 5394 5394 5393 5392 5392 5392 5392 5391 5390 5389 5388 5387 5386 5386 5386 5385 5385 5384 5383 5382 5381 5379 5378 5377 5375 5373 5371 5370 5368 5365 5363 5361 5359 5357 5355 5354 5353
5387 5386 5386 5387 5387 5387 5386 5386 5384 5384 5384 5384 5384 5383 5383 5382 5381 5380 5379 5378 5378 5378 5377 5376 5375 5374 5374 5372 5370 5368 5367 5365 5363 5360 5358 5356 5354 5352 5350 5347 5345 5343 5342
5377 5377 5377 5378 5378 5378 5378 5377 5376 5376 5377 5377 5377 5376 5376 5375 5373 5372 5371 5369 5369 5368 5367 5367 5366 5366 5364 5363 5361 5360 5358 5356 5353 5351 5350 5348 5346 5344 5342 5339 5337 5335 5333